INTELSAT 17 (IS-17)

Last updated on Tue Sep 16 2025 00:02:47 GMT+0000 (Coordinated Universal Time)

1 37238U 10065B 25258.64719847 -.00000018 00000+0 00000+0 0 9991 2 37238 0.0269 222.2325 0002425 312.4294 119.1878 1.00271093 50494
UTC large
Height (km)
Speed (km/s)
/
Latitude / Longitude
Inclination (degrees)
Orbital Period (minutes)
Azimuth
Elevation
Range (km)
Doppler Factor

Next 0 passes for location: London (51.5072 / 0.1276)

Sorry there are no passes over London.